Flag for Germany Weather for the Past 2 Weeks in Biberach an der Riss, Baden-Württemberg, Germany

Now
39 °F

Passing clouds.


Feels Like: 32 °F
Forecast: 37 / 46 °F
Wind: 12 mph from Southwest

Location: Laupheim Airport

Current Time: Feb 13, 2016 at 9:14:14 PM

Latest Report: Feb 13, 2016 at 8:20 PM


Visibility: N/A

Pressure: 29.18 "Hg (27.31 "Hg at 536m altitude)

Humidity: 87%

Dew point: 36 °F

Location of Biberach an der RissLocation

Historic Weather in Biberach an der Riss — Graph

°F

Biberach an der Riss Temperature Yesterday

Maximum temperature yesterday: 41 °F (at 2:20 PM)
Minimum temperature yesterday: 30 °F (at 12:20 AM)
Average temperature yesterday: 35 °F

High & Low Weather Summary for the Past Weeks

 TemperatureHumidityPressure
High55 °F (Feb 1, 11:49 AM)100% (Jan 31, 7:20 AM)30.39 "Hg (Jan 31, 7:20 AM)
Low28 °F (Feb 6, 2:20 AM)49% (Feb 11, 2:20 PM)29.18 "Hg (Feb 13, 5:20 PM)
Average40 °F80%29.88 "Hg
* Reported Jan 29 7:20 PM — Feb 13 7:20 PM, Biberach an der Riss, Weather by CustomWeather, © 2016

Note: Actual official high and low records may vary slightly from our data, if they occured in-between our weather recording intervals... More about our weather records

Advertising

Biberach an der Riss Weather History for the Previous 24 Hours

 ConditionsComfort  
Time TempWeatherWind HumidityBarometerVisibility
7:20 PM
Sat, Feb 13
41 °FPassing clouds.15 mph81%29.18 "HgN/A
6:20 PM39 °FPassing clouds.10 mph87%29.18 "HgN/A
5:20 PM41 °FBroken clouds.5 mph81%29.18 "HgN/A
4:20 PM41 °FPartly sunny.8 mph87%29.21 "HgN/A
3:20 PM41 °FLight rain. Broken clouds.12 mph81%29.24 "Hg6 mi
2:20 PM43 °FBroken clouds.9 mph76%29.24 "HgN/A
1:20 PM41 °FPartly sunny.10 mph81%29.27 "HgN/A
12:20 PM43 °FPartly sunny.9 mph76%29.30 "HgN/A
11:20 AM41 °FPartly sunny.8 mph81%29.30 "HgN/A
10:20 AM39 °FPartly sunny.9 mph87%29.33 "HgN/A
9:20 AM37 °FPartly sunny.9 mph87%29.36 "HgN/A
8:20 AM36 °FPartly sunny.9 mph93%29.36 "HgN/A
7:20 AM36 °FPassing clouds.8 mph93%29.36 "HgN/A
6:20 AM36 °FPassing clouds.8 mph87%29.36 "HgN/A
5:20 AM36 °FPassing clouds.8 mph87%29.36 "HgN/A
4:20 AM36 °FPassing clouds.9 mph93%29.33 "HgN/A
3:20 AM36 °FLight rain. Passing clouds.7 mph93%29.33 "HgN/A
2:20 AM36 °FLight rain. Passing clouds.8 mph93%29.33 "HgN/A
1:20 AM36 °FLight snow. Passing clouds.3 mph87%29.30 "HgN/A
12:20 AM34 °FPassing clouds.3 mph93%29.33 "HgN/A
11:20 PM
Fri, Feb 12
34 °FPassing clouds.3 mph93%29.33 "HgN/A
10:20 PM34 °FLight snow. Passing clouds.5 mph93%29.36 "HgN/A
9:20 PM36 °FLight rain. Partly cloudy.3 mph81%29.36 "HgN/A
Weather by CustomWeather, © 2016

See weather overviewHow to use our weather pages